Time,TemperatureF,DewpointF,PressureIn,WindDirection,WindDirectionDegrees,WindSpeedMPH,WindSpeedGustMPH,Humidity,HourlyPrecipIn,Conditions,Clouds,dailyrainin,SoftwareType,DateUTC
2013-03-03 00:00:00,37.4,35.0,29.60,NNW,338,0.0,0.0,91,0.00,,,0.01,WUHU216HW,2013-03-03 08:00:00,
2013-03-03 00:04:00,37.3,34.8,29.60,NNW,338,0.0,0.0,91,0.00,,,0.00,WUHU216HW,2013-03-03 08:04:00,
2013-03-03 00:05:00,37.3,34.8,29.60,NNW,338,0.0,0.0,91,0.00,,,0.00,WUHU216HW,2013-03-03 08:05:00,
2013-03-03 00:09:00,37.1,34.7,29.60,NNW,338,0.0,0.0,91,0.00,,,0.00,WUHU216HW,2013-03-03 08:09:00,
2013-03-03 00:10:00,37.1,34.7,29.60,NNW,338,0.0,0.0,91,0.00,,,0.00,WUHU216HW,2013-03-03 08:10:00,
2013-03-03 00:15:00,36.9,34.5,29.60,NNW,338,0.0,0.0,91,0.00,,,0.00,WUHU216HW,2013-03-03 08:15:00,
2013-03-03 00:20:00,36.7,34.3,29.60,NNW,338,0.0,0.0,91,0.00,,,0.00,WUHU216HW,2013-03-03 08:20:00,
2013-03-03 00:25:00,36.7,34.3,29.60,NNW,338,0.0,0.0,91,0.00,,,0.00,WUHU216HW,2013-03-03 08:25:00,
2013-03-03 00:26:00,36.5,34.1,29.60,NNW,338,0.0,0.0,91,0.00,,,0.00,WUHU216HW,2013-03-03 08:26:00,
2013-03-03 00:30:00,36.4,33.9,29.60,NNW,338,0.0,0.0,91,0.00,,,0.00,WUHU216HW,2013-03-03 08:30:00,
2013-03-03 00:31:00,36.4,33.9,29.60,NNW,338,0.0,0.0,91,0.00,,,0.00,WUHU216HW,2013-03-03 08:31:00,
2013-03-03 00:35:00,36.4,33.9,29.61,NNW,338,0.0,0.0,91,0.00,,,0.00,WUHU216HW,2013-03-03 08:35:00,
2013-03-03 00:36:00,36.4,33.9,29.61,NNW,338,0.0,0.0,91,0.00,,,0.00,WUHU216HW,2013-03-03 08:36:00,
2013-03-03 00:41:00,36.2,33.8,29.61,NNW,338,0.0,0.0,91,0.00,,,0.00,WUHU216HW,2013-03-03 08:41:00,
2013-03-03 00:46:00,36.2,34.0,29.61,NNW,338,0.0,0.0,92,0.00,,,0.00,WUHU216HW,2013-03-03 08:46:00,
2013-03-03 00:51:00,36.2,34.0,29.61,NNW,338,0.0,0.0,92,0.00,,,0.00,WUHU216HW,2013-03-03 08:51:00,
2013-03-03 00:56:00,36.4,34.2,29.61,NNW,338,0.0,0.0,92,0.00,,,0.00,WUHU216HW,2013-03-03 08:56:00,
2013-03-03 01:01:00,36.4,34.2,29.61,NNW,338,0.0,0.0,92,0.00,,,0.00,WUHU216HW,2013-03-03 09:01:00,
2013-03-03 01:06:00,36.4,34.2,29.61,NNW,338,0.0,0.0,92,0.00,,,0.00,WUHU216HW,2013-03-03 09:06:00,
2013-03-03 01:07:00,36.5,34.4,29.61,NNW,338,0.0,0.0,92,0.00,,,0.00,WUHU216HW,2013-03-03 09:07:00,
2013-03-03 01:11:00,36.5,34.4,29.61,NNW,338,0.0,0.0,92,0.00,,,0.00,WUHU216HW,2013-03-03 09:11:00,
2013-03-03 01:12:00,36.5,34.4,29.61,NNW,338,0.0,0.0,92,0.00,,,0.00,WUHU216HW,2013-03-03 09:12:00,
2013-03-03 01:16:00,36.9,34.7,29.61,NNW,338,0.0,0.0,92,0.00,,,0.00,WUHU216HW,2013-03-03 09:16:00,
2013-03-03 01:17:00,36.9,34.7,29.61,NNW,338,0.0,0.0,92,0.00,,,0.00,WUHU216HW,2013-03-03 09:17:00,
2013-03-03 01:21:00,37.1,34.9,29.61,NNW,338,0.0,0.0,92,0.00,,,0.00,WUHU216HW,2013-03-03 09:21:00,
2013-03-03 01:22:00,37.1,34.9,29.61,NNW,338,0.0,0.0,92,0.00,,,0.00,WUHU216HW,2013-03-03 09:22:00,
2013-03-03 01:27:00,37.3,35.1,29.61,NNW,338,0.0,0.0,92,0.00,,,0.00,WUHU216HW,2013-03-03 09:27:00,
2013-03-03 01:32:00,37.4,35.3,29.61,NNW,338,0.0,0.0,92,0.00,,,0.00,WUHU216HW,2013-03-03 09:32:00,
2013-03-03 01:33:00,37.6,35.5,29.61,NNW,338,0.0,0.0,92,0.00,,,0.00,WUHU216HW,2013-03-03 09:33:00,
2013-03-03 01:37:00,37.8,35.9,29.62,NNW,338,0.0,0.0,93,0.00,,,0.00,WUHU216HW,2013-03-03 09:37:00,
2013-03-03 01:38:00,37.8,35.9,29.62,NNW,338,0.0,0.0,93,0.00,,,0.00,WUHU216HW,2013-03-03 09:38:00,
2013-03-03 01:42:00,37.8,35.9,29.62,NNW,338,0.0,0.0,93,0.00,,,0.00,WUHU216HW,2013-03-03 09:42:00,
2013-03-03 01:43:00,37.8,35.9,29.62,NNW,338,0.0,0.0,93,0.00,,,0.00,WUHU216HW,2013-03-03 09:43:00,
2013-03-03 01:47:00,37.8,35.9,29.62,NNW,338,0.0,0.0,93,0.00,,,0.00,WUHU216HW,2013-03-03 09:47:00,
2013-03-03 01:48:00,37.8,35.9,29.62,NNW,338,0.0,0.0,93,0.00,,,0.00,WUHU216HW,2013-03-03 09:48:00,
2013-03-03 01:52:00,37.8,35.9,29.62,NNW,338,0.0,0.0,93,0.00,,,0.00,WUHU216HW,2013-03-03 09:52:00,
2013-03-03 01:53:00,37.8,35.9,29.62,NNW,338,0.0,0.0,93,0.00,,,0.00,WUHU216HW,2013-03-03 09:53:00,
2013-03-03 01:58:00,37.8,35.9,29.62,NNW,338,0.0,0.0,93,0.00,,,0.00,WUHU216HW,2013-03-03 09:58:00,
2013-03-03 02:03:00,37.8,35.9,29.62,NNW,338,0.0,0.0,93,0.00,,,0.00,WUHU216HW,2013-03-03 10:03:00,
2013-03-03 02:08:00,37.6,35.7,29.63,NNW,338,0.0,0.0,93,0.00,,,0.00,WUHU216HW,2013-03-03 10:08:00,
2013-03-03 02:09:00,37.6,35.7,29.62,NNW,338,0.0,0.0,93,0.00,,,0.00,WUHU216HW,2013-03-03 10:09:00,
2013-03-03 02:13:00,37.4,35.3,29.62,NNW,338,0.0,0.0,92,0.00,,,0.00,WUHU216HW,2013-03-03 10:13:00,
2013-03-03 02:14:00,37.4,35.3,29.62,NNW,338,0.0,0.0,92,0.00,,,0.00,WUHU216HW,2013-03-03 10:14:00,
2013-03-03 02:18:00,37.3,35.1,29.62,NNW,338,0.0,0.0,92,0.00,,,0.00,WUHU216HW,2013-03-03 10:18:00,
2013-03-03 02:19:00,37.3,35.1,29.62,NNW,338,0.0,0.0,92,0.00,,,0.00,WUHU216HW,2013-03-03 10:19:00,
2013-03-03 02:23:00,37.1,34.9,29.62,NNW,338,0.0,0.0,92,0.00,,,0.00,WUHU216HW,2013-03-03 10:23:00,
2013-03-03 02:24:00,37.1,34.9,29.62,NNW,338,0.0,0.0,92,0.00,,,0.00,WUHU216HW,2013-03-03 10:24:00,
2013-03-03 02:28:00,37.1,34.9,29.62,NNW,338,0.0,0.0,92,0.00,,,0.00,WUHU216HW,2013-03-03 10:28:00,
2013-03-03 02:29:00,37.1,34.9,29.62,NNW,338,0.0,0.0,92,0.00,,,0.00,WUHU216HW,2013-03-03 10:29:00,
2013-03-03 02:33:00,37.1,35.2,29.63,NNW,338,0.0,0.0,93,0.00,,,0.00,WUHU216HW,2013-03-03 10:33:00,
2013-03-03 02:34:00,37.1,35.2,29.63,NNW,338,0.0,0.0,93,0.00,,,0.00,WUHU216HW,2013-03-03 10:34:00,
2013-03-03 02:38:00,37.1,34.9,29.63,NNW,338,0.0,0.0,92,0.00,,,0.00,WUHU216HW,2013-03-03 10:38:00,
2013-03-03 02:39:00,37.1,34.9,29.63,NNW,338,0.0,0.0,92,0.00,,,0.00,WUHU216HW,2013-03-03 10:39:00,
2013-03-03 02:43:00,37.1,35.2,29.63,NNW,338,0.0,0.0,93,0.00,,,0.00,WUHU216HW,2013-03-03 10:43:00,
2013-03-03 02:44:00,37.1,35.2,29.63,NNW,338,0.0,0.0,93,0.00,,,0.00,WUHU216HW,2013-03-03 10:44:00,
2013-03-03 02:45:00,37.1,35.2,29.63,NNW,338,0.0,0.0,93,0.00,,,0.00,WUHU216HW,2013-03-03 10:45:00,
2013-03-03 02:48:00,37.1,35.2,29.63,NNW,338,0.0,0.0,93,0.00,,,0.00,WUHU216HW,2013-03-03 10:48:00,
2013-03-03 02:49:00,37.1,35.2,29.63,NNW,338,0.0,0.0,93,0.00,,,0.00,WUHU216HW,2013-03-03 10:49:00,
2013-03-03 02:50:00,37.1,35.2,29.63,NNW,338,0.0,0.0,93,0.00,,,0.00,WUHU216HW,2013-03-03 10:50:00,
2013-03-03 02:53:00,37.3,35.4,29.63,NNW,338,0.0,0.0,93,0.00,,,0.00,WUHU216HW,2013-03-03 10:53:00,
2013-03-03 02:54:00,37.3,35.4,29.63,NNW,338,0.0,0.0,93,0.00,,,0.00,WUHU216HW,2013-03-03 10:54:00,
2013-03-03 02:55:00,37.3,35.4,29.63,NNW,338,0.0,0.0,93,0.00,,,0.00,WUHU216HW,2013-03-03 10:55:00,
2013-03-03 02:59:00,37.3,35.4,29.63,NNW,338,0.0,0.0,93,0.00,,,0.00,WUHU216HW,2013-03-03 10:59:00,
2013-03-03 03:00:00,37.3,35.4,29.63,NNW,338,0.0,0.0,93,0.00,,,0.00,WUHU216HW,2013-03-03 11:00:00,
2013-03-03 03:04:00,37.3,35.4,29.63,NNW,338,0.0,0.0,93,0.00,,,0.00,WUHU216HW,2013-03-03 11:04:00,
2013-03-03 03:05:00,37.3,35.4,29.63,NNW,338,0.0,0.0,93,0.00,,,0.00,WUHU216HW,2013-03-03 11:05:00,
2013-03-03 03:09:00,37.3,35.4,29.63,North,0,0.0,0.0,93,0.00,,,0.00,WUHU216HW,2013-03-03 11:09:00,
2013-03-03 03:10:00,37.3,35.4,29.63,North,0,0.0,0.0,93,0.00,,,0.00,WUHU216HW,2013-03-03 11:10:00,
2013-03-03 03:14:00,37.3,35.4,29.63,North,0,0.0,0.0,93,0.00,,,0.00,WUHU216HW,2013-03-03 11:14:00,
2013-03-03 03:15:00,37.3,35.4,29.63,North,0,0.0,0.0,93,0.00,,,0.00,WUHU216HW,2013-03-03 11:15:00,
2013-03-03 03:19:00,37.4,35.6,29.63,North,0,0.0,0.0,93,0.00,,,0.00,WUHU216HW,2013-03-03 11:19:00,
2013-03-03 03:20:00,37.4,35.6,29.63,North,0,0.0,0.0,93,0.00,,,0.00,WUHU216HW,2013-03-03 11:20:00,
2013-03-03 03:24:00,37.4,35.6,29.63,North,0,0.0,0.0,93,0.00,,,0.00,WUHU216HW,2013-03-03 11:24:00,
2013-03-03 03:25:00,37.3,35.4,29.63,North,0,0.0,0.0,93,0.00,,,0.00,WUHU216HW,2013-03-03 11:25:00,
2013-03-03 03:26:00,37.4,35.6,29.62,North,0,0.0,0.0,93,0.00,,,0.00,WUHU216HW,2013-03-03 11:26:00,
2013-03-03 03:29:00,37.4,35.6,29.63,North,0,0.0,0.0,93,0.00,,,0.00,WUHU216HW,2013-03-03 11:29:00,
2013-03-03 03:30:00,37.4,35.6,29.62,North,0,0.0,0.0,93,0.00,,,0.00,WUHU216HW,2013-03-03 11:30:00,
2013-03-03 03:31:00,37.4,35.6,29.62,North,0,0.0,0.0,93,0.00,,,0.00,WUHU216HW,2013-03-03 11:31:00,
2013-03-03 03:34:00,37.4,35.6,29.62,North,0,0.0,0.0,93,0.00,,,0.00,WUHU216HW,2013-03-03 11:34:00,
2013-03-03 03:35:00,37.4,35.6,29.62,North,0,0.0,0.0,93,0.00,,,0.00,WUHU216HW,2013-03-03 11:35:00,
2013-03-03 03:36:00,37.4,35.6,29.62,North,0,0.0,0.0,93,0.00,,,0.00,WUHU216HW,2013-03-03 11:36:00,
2013-03-03 03:39:00,37.4,35.6,29.62,North,0,0.0,0.0,93,0.00,,,0.00,WUHU216HW,2013-03-03 11:39:00,
2013-03-03 03:40:00,37.4,35.6,29.62,North,0,0.0,0.0,93,0.00,,,0.00,WUHU216HW,2013-03-03 11:40:00,
2013-03-03 03:41:00,37.6,35.7,29.62,North,0,0.0,0.0,93,0.00,,,0.00,WUHU216HW,2013-03-03 11:41:00,
2013-03-03 03:44:00,37.6,35.7,29.63,North,0,0.0,0.0,93,0.00,,,0.00,WUHU216HW,2013-03-03 11:44:00,
2013-03-03 03:45:00,37.6,35.7,29.63,North,0,0.0,0.0,93,0.00,,,0.00,WUHU216HW,2013-03-03 11:45:00,
2013-03-03 03:46:00,37.6,35.7,29.62,North,0,0.0,0.0,93,0.00,,,0.00,WUHU216HW,2013-03-03 11:46:00,
2013-03-03 03:50:00,37.6,35.7,29.63,North,0,0.0,0.0,93,0.00,,,0.00,WUHU216HW,2013-03-03 11:50:00,
2013-03-03 03:51:00,37.6,35.7,29.62,North,0,0.0,0.0,93,0.00,,,0.00,WUHU216HW,2013-03-03 11:51:00,
2013-03-03 03:52:00,37.6,36.0,29.62,North,0,0.0,0.0,94,0.00,,,0.00,WUHU216HW,2013-03-03 11:52:00,
2013-03-03 03:55:00,37.6,36.0,29.62,North,0,0.0,0.0,94,0.00,,,0.00,WUHU216HW,2013-03-03 11:55:00,
2013-03-03 03:56:00,37.6,36.0,29.62,North,0,0.0,0.0,94,0.00,,,0.00,WUHU216HW,2013-03-03 11:56:00,
2013-03-03 03:57:00,37.6,36.0,29.62,North,0,0.0,0.0,94,0.00,,,0.00,WUHU216HW,2013-03-03 11:57:00,
2013-03-03 04:00:00,37.6,35.7,29.62,North,0,0.0,0.0,93,0.00,,,0.00,WUHU216HW,2013-03-03 12:00:00,
2013-03-03 04:01:00,37.6,36.0,29.62,North,0,0.0,0.0,94,0.00,,,0.00,WUHU216HW,2013-03-03 12:01:00,
2013-03-03 04:03:00,37.8,36.2,29.62,North,0,0.0,0.0,94,0.00,,,0.00,WUHU216HW,2013-03-03 12:03:00,
2013-03-03 04:04:00,37.6,36.0,29.62,NE,45,0.2,0.4,94,0.00,,,0.00,WUHU216HW,2013-03-03 12:04:00,
2013-03-03 04:05:00,37.6,36.0,29.62,NE,45,0.2,0.4,94,0.00,,,0.00,WUHU216HW,2013-03-03 12:05:00,
2013-03-03 04:06:00,37.6,36.0,29.62,NE,45,0.2,0.4,94,0.00,,,0.00,WUHU216HW,2013-03-03 12:06:00,
2013-03-03 04:08:00,37.6,36.0,29.62,NE,45,0.2,0.4,94,0.00,,,0.00,WUHU216HW,2013-03-03 12:08:00,
2013-03-03 04:10:00,37.6,36.0,29.62,NE,45,0.2,0.4,94,0.00,,,0.00,WUHU216HW,2013-03-03 12:10:00,
2013-03-03 04:11:00,37.6,36.0,29.62,NE,45,0.2,0.4,94,0.00,,,0.00,WUHU216HW,2013-03-03 12:11:00,
2013-03-03 04:13:00,37.6,36.0,29.62,NE,45,0.2,0.4,94,0.00,,,0.00,WUHU216HW,2013-03-03 12:13:00,
2013-03-03 04:35:00,36.4,34.5,29.63,North,0,0.0,0.0,93,0.00,,,0.00,WUHU216HW,2013-03-03 12:35:00,
2013-03-03 04:40:00,36.4,34.5,29.64,North,0,0.0,0.0,93,0.00,,,0.00,WUHU216HW,2013-03-03 12:40:00,
2013-03-03 04:45:00,36.2,34.3,29.64,NW,315,0.0,0.0,93,0.00,,,0.00,WUHU216HW,2013-03-03 12:45:00,
2013-03-03 04:50:00,36.0,34.1,29.64,NW,315,0.0,0.0,93,0.00,,,0.00,WUHU216HW,2013-03-03 12:50:00,
2013-03-03 04:55:00,36.0,34.1,29.64,NW,315,0.0,0.0,93,0.00,,,0.00,WUHU216HW,2013-03-03 12:55:00,
2013-03-03 05:00:00,35.8,33.9,29.65,NW,315,0.0,0.0,93,0.00,,,0.00,WUHU216HW,2013-03-03 13:00:00,
2013-03-03 05:05:00,35.6,33.8,29.64,NW,315,0.0,0.0,93,0.00,,,0.00,WUHU216HW,2013-03-03 13:05:00,
2013-03-03 05:06:00,35.6,33.8,29.64,NW,315,0.0,0.0,93,0.00,,,0.00,WUHU216HW,2013-03-03 13:06:00,
2013-03-03 05:10:00,35.6,33.8,29.65,NW,315,0.0,0.0,93,0.00,,,0.00,WUHU216HW,2013-03-03 13:10:00,
2013-03-03 05:11:00,35.6,33.8,29.65,NW,315,0.0,0.0,93,0.00,,,0.00,WUHU216HW,2013-03-03 13:11:00,
2013-03-03 05:15:00,35.8,33.9,29.65,NW,315,0.0,0.0,93,0.00,,,0.00,WUHU216HW,2013-03-03 13:15:00,
2013-03-03 05:16:00,35.8,33.9,29.65,NW,315,0.0,0.0,93,0.00,,,0.00,WUHU216HW,2013-03-03 13:16:00,
2013-03-03 05:20:00,36.0,34.4,29.65,East,90,0.0,0.2,94,0.00,,,0.00,WUHU216HW,2013-03-03 13:20:00,
2013-03-03 05:21:00,36.0,34.4,29.65,East,90,0.0,0.2,94,0.00,,,0.00,WUHU216HW,2013-03-03 13:21:00,
2013-03-03 05:25:00,36.2,34.6,29.65,East,90,0.0,0.2,94,0.00,,,0.00,WUHU216HW,2013-03-03 13:25:00,
2013-03-03 05:26:00,36.2,34.6,29.65,East,90,0.0,0.2,94,0.00,,,0.00,WUHU216HW,2013-03-03 13:26:00,
2013-03-03 05:30:00,36.4,34.7,29.65,ESE,113,0.4,0.4,94,0.00,,,0.00,WUHU216HW,2013-03-03 13:30:00,
2013-03-03 05:31:00,36.4,34.7,29.65,ESE,113,0.4,0.4,94,0.00,,,0.00,WUHU216HW,2013-03-03 13:31:00,
2013-03-03 05:36:00,36.4,34.7,29.65,SE,135,0.0,1.1,94,0.00,,,0.00,WUHU216HW,2013-03-03 13:36:00,
2013-03-03 05:41:00,36.5,34.9,29.65,North,0,0.2,1.1,94,0.00,,,0.00,WUHU216HW,2013-03-03 13:41:00,
2013-03-03 05:42:00,36.7,35.1,29.65,North,0,0.0,0.4,94,0.00,,,0.00,WUHU216HW,2013-03-03 13:42:00,
2013-03-03 05:46:00,36.7,35.1,29.66,NE,45,0.0,0.4,94,0.00,,,0.00,WUHU216HW,2013-03-03 13:46:00,
2013-03-03 05:47:00,36.7,35.1,29.65,NNE,23,0.0,0.4,94,0.00,,,0.00,WUHU216HW,2013-03-03 13:47:00,
2013-03-03 05:51:00,36.7,35.1,29.65,North,0,0.2,0.4,94,0.00,,,0.00,WUHU216HW,2013-03-03 13:51:00,
2013-03-03 05:52:00,36.9,35.3,29.65,North,0,0.0,0.4,94,0.00,,,0.00,WUHU216HW,2013-03-03 13:52:00,
2013-03-03 05:56:00,36.9,35.3,29.65,North,0,0.0,0.2,94,0.00,,,0.00,WUHU216HW,2013-03-03 13:56:00,
2013-03-03 05:57:00,36.9,35.3,29.66,North,0,0.0,0.2,94,0.00,,,0.00,WUHU216HW,2013-03-03 13:57:00,
2013-03-03 06:01:00,36.9,35.3,29.66,North,0,0.0,0.0,94,0.00,,,0.00,WUHU216HW,2013-03-03 14:01:00,
2013-03-03 06:02:00,36.9,35.3,29.66,North,0,0.0,0.0,94,0.00,,,0.00,WUHU216HW,2013-03-03 14:02:00,
2013-03-03 06:06:00,36.9,35.3,29.66,North,0,0.4,0.7,94,0.00,,,0.00,WUHU216HW,2013-03-03 14:06:00,
2013-03-03 06:07:00,36.9,35.3,29.66,North,0,0.4,0.7,94,0.00,,,0.00,WUHU216HW,2013-03-03 14:07:00,
2013-03-03 06:12:00,36.9,35.3,29.66,North,0,0.0,0.7,94,0.00,,,0.00,WUHU216HW,2013-03-03 14:12:00,
2013-03-03 06:17:00,36.9,35.3,29.66,North,0,0.0,0.2,94,0.00,,,0.00,WUHU216HW,2013-03-03 14:17:00,
2013-03-03 06:18:00,36.7,35.1,29.66,North,0,0.0,0.2,94,0.00,,,0.00,WUHU216HW,2013-03-03 14:18:00,
2013-03-03 06:22:00,36.7,35.1,29.66,North,0,0.0,0.2,94,0.00,,,0.00,WUHU216HW,2013-03-03 14:22:00,
2013-03-03 06:23:00,36.7,35.1,29.66,North,0,0.0,0.2,94,0.00,,,0.00,WUHU216HW,2013-03-03 14:23:00,
2013-03-03 06:27:00,36.7,35.1,29.66,North,0,0.0,0.4,94,0.00,,,0.00,WUHU216HW,2013-03-03 14:27:00,
2013-03-03 06:28:00,36.7,35.1,29.66,North,0,0.0,0.4,94,0.00,,,0.00,WUHU216HW,2013-03-03 14:28:00,
2013-03-03 06:32:00,36.7,35.1,29.66,North,0,0.0,0.4,94,0.00,,,0.00,WUHU216HW,2013-03-03 14:32:00,
2013-03-03 06:33:00,36.7,35.1,29.66,North,0,0.0,0.4,94,0.00,,,0.00,WUHU216HW,2013-03-03 14:33:00,
2013-03-03 06:37:00,36.5,34.9,29.66,North,0,0.4,0.4,94,0.00,,,0.00,WUHU216HW,2013-03-03 14:37:00,
2013-03-03 06:38:00,36.5,34.9,29.66,North,0,0.0,0.4,94,0.00,,,0.00,WUHU216HW,2013-03-03 14:38:00,
2013-03-03 06:42:00,36.7,35.1,29.66,North,0,0.0,0.4,94,0.00,,,0.00,WUHU216HW,2013-03-03 14:42:00,
2013-03-03 06:43:00,36.5,34.9,29.66,North,0,0.0,0.4,94,0.00,,,0.00,WUHU216HW,2013-03-03 14:43:00,
2013-03-03 06:44:00,36.7,35.1,29.66,North,0,0.0,0.4,94,0.00,,,0.00,WUHU216HW,2013-03-03 14:44:00,
2013-03-03 06:47:00,36.5,34.9,29.67,North,0,0.0,0.0,94,0.00,,,0.00,WUHU216HW,2013-03-03 14:47:00,
2013-03-03 06:48:00,36.5,34.9,29.67,North,0,0.0,0.0,94,0.00,,,0.00,WUHU216HW,2013-03-03 14:48:00,
2013-03-03 06:49:00,36.4,34.7,29.67,North,0,0.0,0.0,94,0.00,,,0.00,WUHU216HW,2013-03-03 14:49:00,
2013-03-03 06:52:00,36.4,34.7,29.67,North,0,0.0,0.0,94,0.00,,,0.00,WUHU216HW,2013-03-03 14:52:00,
2013-03-03 06:53:00,36.4,34.7,29.67,North,0,0.0,0.0,94,0.00,,,0.00,WUHU216HW,2013-03-03 14:53:00,
2013-03-03 06:54:00,36.4,34.7,29.67,North,0,0.0,0.0,94,0.00,,,0.00,WUHU216HW,2013-03-03 14:54:00,
2013-03-03 06:57:00,36.4,34.7,29.66,North,0,0.0,0.0,94,0.00,,,0.00,WUHU216HW,2013-03-03 14:57:00,
2013-03-03 06:58:00,36.2,34.6,29.66,North,0,0.0,0.0,94,0.00,,,0.00,WUHU216HW,2013-03-03 14:58:00,
2013-03-03 06:59:00,36.2,34.6,29.66,North,0,0.0,0.0,94,0.00,,,0.00,WUHU216HW,2013-03-03 14:59:00,
2013-03-03 07:02:00,36.2,34.6,29.66,North,0,0.0,0.0,94,0.00,,,0.00,WUHU216HW,2013-03-03 15:02:00,
2013-03-03 07:04:00,36.0,34.4,29.67,North,0,0.0,0.0,94,0.00,,,0.00,WUHU216HW,2013-03-03 15:04:00,
2013-03-03 07:07:00,36.0,34.4,29.67,North,0,0.0,0.0,94,0.00,,,0.00,WUHU216HW,2013-03-03 15:07:00,
2013-03-03 07:08:00,36.0,34.4,29.67,North,0,0.0,0.0,94,0.00,,,0.00,WUHU216HW,2013-03-03 15:08:00,
2013-03-03 07:09:00,36.0,34.4,29.67,North,0,0.0,0.0,94,0.00,,,0.00,WUHU216HW,2013-03-03 15:09:00,
2013-03-03 07:12:00,35.8,34.2,29.67,NNW,338,0.4,0.4,94,0.00,,,0.00,WUHU216HW,2013-03-03 15:12:00,
2013-03-03 07:13:00,35.8,34.2,29.67,NNW,338,0.0,0.4,94,0.00,,,0.00,WUHU216HW,2013-03-03 15:13:00,
2013-03-03 07:14:00,35.8,34.2,29.67,NNW,338,0.0,0.4,94,0.00,,,0.00,WUHU216HW,2013-03-03 15:14:00,
2013-03-03 07:17:00,35.6,34.0,29.67,NNW,338,0.0,0.4,94,0.00,,,0.00,WUHU216HW,2013-03-03 15:17:00,
2013-03-03 07:18:00,35.6,34.0,29.67,WNW,293,0.2,0.4,94,0.00,,,0.00,WUHU216HW,2013-03-03 15:18:00,
2013-03-03 07:19:00,35.6,34.0,29.67,WNW,293,0.2,0.4,94,0.00,,,0.00,WUHU216HW,2013-03-03 15:19:00,
2013-03-03 07:20:00,35.8,34.2,29.67,WNW,293,0.0,0.4,94,0.00,,,0.00,WUHU216HW,2013-03-03 15:20:00,
2013-03-03 07:22:00,35.8,34.2,29.67,WNW,293,0.0,0.2,94,0.00,,,0.00,WUHU216HW,2013-03-03 15:22:00,
2013-03-03 07:23:00,35.8,34.2,29.67,WNW,293,0.0,0.2,94,0.00,,,0.00,WUHU216HW,2013-03-03 15:23:00,
2013-03-03 07:24:00,35.8,34.2,29.67,WNW,293,0.0,0.2,94,0.00,,,0.00,WUHU216HW,2013-03-03 15:24:00,
2013-03-03 07:25:00,35.8,34.2,29.67,WNW,293,0.0,0.2,94,0.00,,,0.00,WUHU216HW,2013-03-03 15:25:00,
2013-03-03 07:28:00,35.8,34.2,29.68,NNE,23,0.0,0.2,94,0.00,,,0.00,WUHU216HW,2013-03-03 15:28:00,
2013-03-03 07:29:00,36.0,34.4,29.67,East,90,0.4,0.4,94,0.00,,,0.00,WUHU216HW,2013-03-03 15:29:00,
2013-03-03 07:30:00,35.8,34.2,29.68,ESE,113,0.0,0.4,94,0.00,,,0.00,WUHU216HW,2013-03-03 15:30:00,
2013-03-03 07:33:00,35.8,34.2,29.68,ESE,113,0.0,0.4,94,0.00,,,0.00,WUHU216HW,2013-03-03 15:33:00,
2013-03-03 07:34:00,35.8,34.2,29.68,ESE,113,0.0,0.4,94,0.00,,,0.00,WUHU216HW,2013-03-03 15:34:00,
2013-03-03 07:35:00,36.0,34.4,29.68,NE,45,0.0,0.4,94,0.00,,,0.00,WUHU216HW,2013-03-03 15:35:00,
2013-03-03 07:38:00,36.0,34.4,29.68,NW,315,0.0,0.4,94,0.00,,,0.00,WUHU216HW,2013-03-03 15:38:00,
2013-03-03 07:39:00,36.0,34.4,29.67,North,0,0.0,0.4,94,0.00,,,0.00,WUHU216HW,2013-03-03 15:39:00,
2013-03-03 07:40:00,36.0,34.4,29.68,North,0,0.0,0.4,94,0.00,,,0.00,WUHU216HW,2013-03-03 15:40:00,
2013-03-03 07:43:00,35.8,34.2,29.68,North,0,0.0,0.4,94,0.00,,,0.00,WUHU216HW,2013-03-03 15:43:00,
2013-03-03 07:44:00,35.8,34.2,29.68,North,0,0.0,0.4,94,0.00,,,0.00,WUHU216HW,2013-03-03 15:44:00,
2013-03-03 07:45:00,35.8,34.2,29.68,North,0,0.0,0.4,94,0.00,,,0.00,WUHU216HW,2013-03-03 15:45:00,
2013-03-03 07:48:00,35.8,34.2,29.68,North,0,0.0,0.4,94,0.00,,,0.00,WUHU216HW,2013-03-03 15:48:00,
2013-03-03 07:49:00,35.6,34.0,29.68,North,0,0.0,0.0,94,0.00,,,0.00,WUHU216HW,2013-03-03 15:49:00,
2013-03-03 07:50:00,35.6,34.0,29.68,North,0,0.0,0.0,94,0.00,,,0.00,WUHU216HW,2013-03-03 15:50:00,
2013-03-03 07:53:00,35.6,34.0,29.68,North,0,0.0,0.0,94,0.00,,,0.00,WUHU216HW,2013-03-03 15:53:00,
2013-03-03 07:54:00,35.6,34.0,29.68,North,0,0.0,0.0,94,0.00,,,0.00,WUHU216HW,2013-03-03 15:54:00,
2013-03-03 07:55:00,35.6,34.0,29.68,North,0,0.0,0.0,94,0.00,,,0.00,WUHU216HW,2013-03-03 15:55:00,
2013-03-03 07:58:00,35.6,34.0,29.68,North,0,0.0,0.0,94,0.00,,,0.00,WUHU216HW,2013-03-03 15:58:00,
2013-03-03 07:59:00,35.6,34.0,29.68,North,0,0.0,0.0,94,0.00,,,0.00,WUHU216HW,2013-03-03 15:59:00,
2013-03-03 08:00:00,35.6,34.0,29.68,NNW,338,0.0,0.0,94,0.00,,,0.00,WUHU216HW,2013-03-03 16:00:00,
2013-03-03 08:03:00,35.6,34.0,29.68,NNW,338,0.0,0.0,94,0.00,,,0.00,WUHU216HW,2013-03-03 16:03:00,
2013-03-03 08:04:00,35.6,34.0,29.68,NNW,338,0.0,0.0,94,0.00,,,0.00,WUHU216HW,2013-03-03 16:04:00,
2013-03-03 08:06:00,35.6,34.0,29.68,NNW,338,0.0,0.0,94,0.00,,,0.00,WUHU216HW,2013-03-03 16:06:00,
2013-03-03 08:08:00,35.6,34.0,29.68,NNW,338,0.0,0.0,94,0.00,,,0.00,WUHU216HW,2013-03-03 16:08:00,
2013-03-03 08:09:00,35.6,34.0,29.68,NNW,338,0.0,0.0,94,0.00,,,0.00,WUHU216HW,2013-03-03 16:09:00,
2013-03-03 08:11:00,35.6,34.0,29.68,NNW,338,0.0,0.0,94,0.00,,,0.00,WUHU216HW,2013-03-03 16:11:00,
2013-03-03 08:13:00,35.8,34.2,29.68,NNW,338,0.0,0.2,94,0.00,,,0.00,WUHU216HW,2013-03-03 16:13:00,
2013-03-03 08:14:00,35.8,34.2,29.68,NNW,338,0.0,0.2,94,0.00,,,0.00,WUHU216HW,2013-03-03 16:14:00,
2013-03-03 08:15:00,36.0,34.4,29.68,NNW,338,0.0,0.2,94,0.00,,,0.00,WUHU216HW,2013-03-03 16:15:00,
2013-03-03 08:16:00,36.2,34.6,29.68,NNW,338,0.0,0.2,94,0.00,,,0.00,WUHU216HW,2013-03-03 16:16:00,
2013-03-03 08:18:00,36.4,34.7,29.68,NW,315,0.0,0.4,94,0.00,,,0.00,WUHU216HW,2013-03-03 16:18:00,
2013-03-03 08:19:00,36.4,34.7,29.68,NW,315,0.0,0.4,94,0.00,,,0.00,WUHU216HW,2013-03-03 16:19:00,
2013-03-03 08:20:00,36.4,34.7,29.68,NW,315,0.0,0.4,94,0.00,,,0.00,WUHU216HW,2013-03-03 16:20:00,
2013-03-03 08:21:00,36.5,34.9,29.69,NW,315,0.0,0.4,94,0.00,,,0.00,WUHU216HW,2013-03-03 16:21:00,
2013-03-03 08:24:00,36.5,34.9,29.69,NNW,338,0.2,0.4,94,0.00,,,0.00,WUHU216HW,2013-03-03 16:24:00,
2013-03-03 08:26:00,36.5,34.9,29.68,NNW,338,0.0,0.4,94,0.00,,,0.00,WUHU216HW,2013-03-03 16:26:00,
2013-03-03 08:29:00,36.5,34.9,29.68,NW,315,0.2,0.4,94,0.00,,,0.00,WUHU216HW,2013-03-03 16:29:00,
2013-03-03 08:31:00,36.5,34.9,29.68,NW,315,0.0,0.4,94,0.00,,,0.00,WUHU216HW,2013-03-03 16:31:00,
2013-03-03 08:34:00,36.5,34.9,29.68,NW,315,0.0,0.4,94,0.00,,,0.00,WUHU216HW,2013-03-03 16:34:00,
2013-03-03 08:36:00,36.5,34.9,29.68,NW,315,0.0,0.4,94,0.00,,,0.00,WUHU216HW,2013-03-03 16:36:00,
2013-03-03 08:39:00,36.5,34.9,29.68,NW,315,0.0,0.0,94,0.00,,,0.00,WUHU216HW,2013-03-03 16:39:00,
2013-03-03 08:41:00,36.4,34.7,29.68,WSW,248,0.7,0.7,94,0.00,,,0.00,WUHU216HW,2013-03-03 16:41:00,
2013-03-03 08:44:00,36.5,34.9,29.68,NW,315,0.0,0.7,94,0.00,,,0.00,WUHU216HW,2013-03-03 16:44:00,
2013-03-03 08:46:00,36.5,34.9,29.68,SE,135,0.0,0.7,94,0.00,,,0.00,WUHU216HW,2013-03-03 16:46:00,
2013-03-03 08:47:00,36.7,35.1,29.68,SE,135,0.0,0.7,94,0.00,,,0.00,WUHU216HW,2013-03-03 16:47:00,
2013-03-03 08:49:00,36.7,35.1,29.68,NW,315,0.4,0.7,94,0.00,,,0.00,WUHU216HW,2013-03-03 16:49:00,
2013-03-03 08:52:00,36.7,35.1,29.68,WNW,293,0.4,0.4,94,0.00,,,0.00,WUHU216HW,2013-03-03 16:52:00,
2013-03-03 08:54:00,36.9,35.3,29.68,NW,315,0.0,0.4,94,0.00,,,0.00,WUHU216HW,2013-03-03 16:54:00,
2013-03-03 08:57:00,37.1,35.5,29.69,WNW,293,0.0,0.4,94,0.00,,,0.00,WUHU216HW,2013-03-03 16:57:00,
2013-03-03 08:59:00,37.1,35.5,29.68,WNW,293,0.0,0.4,94,0.00,,,0.00,WUHU216HW,2013-03-03 16:59:00,
2013-03-03 09:00:00,37.1,35.5,29.68,WNW,293,0.0,0.0,94,0.00,,,0.00,WUHU216HW,2013-03-03 17:00:00,
2013-03-03 09:02:00,37.1,35.5,29.68,WNW,293,0.0,0.4,94,0.00,,,0.00,WUHU216HW,2013-03-03 17:02:00,
2013-03-03 09:03:00,37.1,35.5,29.68,WNW,293,0.0,0.0,94,0.00,,,0.00,WUHU216HW,2013-03-03 17:03:00,
2013-03-03 09:04:00,37.1,35.5,29.68,WNW,293,0.0,0.0,94,0.00,,,0.00,WUHU216HW,2013-03-03 17:04:00,
2013-03-03 09:05:00,37.1,35.5,29.68,WNW,293,0.0,0.0,94,0.00,,,0.00,WUHU216HW,2013-03-03 17:05:00,
2013-03-03 09:07:00,37.1,35.5,29.68,WNW,293,0.0,0.0,94,0.00,,,0.00,WUHU216HW,2013-03-03 17:07:00,
2013-03-03 09:08:00,37.1,35.5,29.68,WNW,293,0.0,0.0,94,0.00,,,0.00,WUHU216HW,2013-03-03 17:08:00,
2013-03-03 09:09:00,37.1,35.5,29.68,WNW,293,0.0,0.0,94,0.00,,,0.00,WUHU216HW,2013-03-03 17:09:00,
2013-03-03 09:31:00,39.1,37.2,29.68,NNE,23,0.2,0.2,93,0.00,,,0.00,WUHU216HW,2013-03-03 17:31:00,
2013-03-03 09:36:00,39.2,37.6,29.68,WSW,248,0.0,0.7,94,0.00,,,0.00,WUHU216HW,2013-03-03 17:36:00,
2013-03-03 09:41:00,39.4,37.5,29.68,WNW,293,0.4,0.7,93,0.00,,,0.00,WUHU216HW,2013-03-03 17:41:00,
2013-03-03 09:46:00,39.2,37.4,29.68,SE,135,0.0,0.7,93,0.00,,,0.00,WUHU216HW,2013-03-03 17:46:00,
2013-03-03 09:51:00,39.2,37.4,29.68,SE,135,0.0,0.7,93,0.00,,,0.00,WUHU216HW,2013-03-03 17:51:00,
2013-03-03 09:52:00,39.2,37.4,29.68,SE,135,0.0,0.7,93,0.00,,,0.00,WUHU216HW,2013-03-03 17:52:00,
2013-03-03 09:56:00,39.1,36.9,29.68,WSW,248,0.0,0.0,92,0.00,,,0.00,WUHU216HW,2013-03-03 17:56:00,
2013-03-03 09:57:00,39.1,37.2,29.68,WSW,248,0.0,0.0,93,0.00,,,0.00,WUHU216HW,2013-03-03 17:57:00,
2013-03-03 10:01:00,39.2,37.4,29.68,WSW,248,0.0,0.0,93,0.00,,,0.00,WUHU216HW,2013-03-03 18:01:00,
2013-03-03 10:02:00,39.2,37.4,29.68,WSW,248,0.0,0.0,93,0.00,,,0.00,WUHU216HW,2013-03-03 18:02:00,
2013-03-03 10:06:00,39.2,37.4,29.68,WSW,248,0.0,0.0,93,0.00,,,0.00,WUHU216HW,2013-03-03 18:06:00,
2013-03-03 10:07:00,39.2,37.4,29.68,WSW,248,0.0,0.0,93,0.00,,,0.00,WUHU216HW,2013-03-03 18:07:00,
2013-03-03 10:11:00,39.4,37.3,29.68,WSW,248,0.0,0.0,92,0.00,,,0.00,WUHU216HW,2013-03-03 18:11:00,
2013-03-03 10:12:00,39.4,37.3,29.68,WSW,248,0.0,0.0,92,0.00,,,0.00,WUHU216HW,2013-03-03 18:12:00,
2013-03-03 10:17:00,39.2,37.1,29.68,WSW,248,0.0,0.0,92,0.00,,,0.00,WUHU216HW,2013-03-03 18:17:00,
2013-03-03 10:18:00,39.2,37.1,29.68,WSW,248,0.0,0.0,92,0.00,,,0.00,WUHU216HW,2013-03-03 18:18:00,
2013-03-03 10:22:00,39.4,37.3,29.68,East,90,0.4,0.4,92,0.00,,,0.00,WUHU216HW,2013-03-03 18:22:00,
2013-03-03 10:23:00,39.4,37.3,29.68,East,90,0.4,0.4,92,0.00,,,0.00,WUHU216HW,2013-03-03 18:23:00,
2013-03-03 10:25:00,39.8,37.4,29.68,SSE,158,0.0,0.0,91,0.00,,,0.00,WUHU216HW,2013-03-03 18:25:00,
2013-03-03 10:27:00,39.8,37.4,29.68,SSE,158,0.0,0.4,91,0.00,,,0.00,WUHU216HW,2013-03-03 18:27:00,
2013-03-03 10:28:00,39.8,37.4,29.68,SSE,158,0.0,0.4,91,0.00,,,0.00,WUHU216HW,2013-03-03 18:28:00,
2013-03-03 10:32:00,39.8,37.4,29.68,SSE,158,0.0,0.4,91,0.00,,,0.00,WUHU216HW,2013-03-03 18:32:00,
2013-03-03 10:33:00,39.8,37.4,29.68,SSE,158,0.0,0.4,91,0.00,,,0.00,WUHU216HW,2013-03-03 18:33:00,
2013-03-03 10:56:00,42.7,39.1,29.67,ENE,68,0.4,0.4,87,0.00,,,0.00,WUHU216HW,2013-03-03 18:56:00,
2013-03-03 11:01:00,42.8,39.3,29.67,NNW,338,0.7,0.7,87,0.00,,,0.00,WUHU216HW,2013-03-03 19:01:00,
2013-03-03 11:02:00,42.8,39.3,29.67,ENE,68,0.4,0.7,87,0.00,,,0.00,WUHU216HW,2013-03-03 19:02:00,
2013-03-03 11:06:00,43.2,39.0,29.67,NNE,23,0.4,1.1,85,0.00,,,0.00,WUHU216HW,2013-03-03 19:06:00,
2013-03-03 11:07:00,43.2,39.2,29.67,NNW,338,1.1,1.1,86,0.00,,,0.00,WUHU216HW,2013-03-03 19:07:00,
2013-03-03 11:11:00,43.4,39.4,29.67,ESE,113,0.7,1.1,86,0.00,,,0.00,WUHU216HW,2013-03-03 19:11:00,
2013-03-03 11:12:00,43.4,39.4,29.67,ESE,113,0.7,1.1,86,0.00,,,0.00,WUHU216HW,2013-03-03 19:12:00,
2013-03-03 11:16:00,43.6,39.3,29.68,West,270,0.7,1.1,85,0.00,,,0.00,WUHU216HW,2013-03-03 19:16:00,
2013-03-03 11:17:00,43.6,39.3,29.68,West,270,0.7,1.1,85,0.00,,,0.00,WUHU216HW,2013-03-03 19:17:00,
2013-03-03 11:22:00,43.9,39.7,29.68,NNW,338,1.3,1.3,85,0.00,,,0.00,WUHU216HW,2013-03-03 19:22:00,
2013-03-03 11:27:00,44.5,40.2,29.68,NNW,338,0.7,1.3,85,0.00,,,0.00,WUHU216HW,2013-03-03 19:27:00,
2013-03-03 11:32:00,44.8,39.7,29.68,NNE,23,0.2,1.6,82,0.00,,,0.00,WUHU216HW,2013-03-03 19:32:00,
2013-03-03 11:33:00,45.0,39.9,29.68,North,0,0.0,1.6,82,0.00,,,0.00,WUHU216HW,2013-03-03 19:33:00,
2013-03-03 11:37:00,45.2,39.1,29.68,NNW,338,0.0,1.6,79,0.00,,,0.00,WUHU216HW,2013-03-03 19:37:00,
2013-03-03 11:38:00,45.4,39.9,29.68,ENE,68,0.0,1.6,81,0.00,,,0.00,WUHU216HW,2013-03-03 19:38:00,
2013-03-03 11:42:00,45.9,40.4,29.68,North,0,0.0,0.4,81,0.00,,,0.00,WUHU216HW,2013-03-03 19:42:00,
2013-03-03 11:43:00,46.1,40.6,29.68,North,0,0.0,0.4,81,0.00,,,0.00,WUHU216HW,2013-03-03 19:43:00,
2013-03-03 11:47:00,46.6,41.1,29.68,WSW,248,0.2,0.7,81,0.00,,,0.00,WUHU216HW,2013-03-03 19:47:00,
2013-03-03 11:48:00,46.8,41.3,29.68,WNW,293,0.2,0.7,81,0.00,,,0.00,WUHU216HW,2013-03-03 19:48:00,
2013-03-03 11:52:00,47.2,41.3,29.67,North,0,1.1,1.1,80,0.00,,,0.00,WUHU216HW,2013-03-03 19:52:00,
2013-03-03 11:53:00,47.3,41.5,29.68,NNW,338,0.2,1.1,80,0.00,,,0.00,WUHU216HW,2013-03-03 19:53:00,
2013-03-03 11:57:00,47.3,41.5,29.68,South,180,0.0,1.1,80,0.00,,,0.00,WUHU216HW,2013-03-03 19:57:00,
2013-03-03 11:58:00,47.5,41.7,29.68,North,0,0.0,1.1,80,0.00,,,0.00,WUHU216HW,2013-03-03 19:58:00,
2013-03-03 12:03:00,47.3,40.8,29.68,WSW,248,0.0,0.4,78,0.00,,,0.00,WUHU216HW,2013-03-03 20:03:00,
2013-03-03 12:08:00,47.5,40.6,29.68,ENE,68,1.1,1.1,77,0.00,,,0.00,WUHU216HW,2013-03-03 20:08:00,
2013-03-03 12:13:00,47.3,40.8,29.68,North,0,0.2,1.3,78,0.00,,,0.00,WUHU216HW,2013-03-03 20:13:00,
2013-03-03 12:18:00,47.2,39.6,29.68,WSW,248,0.4,1.8,75,0.00,,,0.00,WUHU216HW,2013-03-03 20:18:00,
2013-03-03 12:23:00,47.0,39.4,29.67,NNE,23,0.4,1.8,75,0.00,,,0.00,WUHU216HW,2013-03-03 20:23:00,
2013-03-03 12:24:00,47.0,39.4,29.68,WSW,248,0.0,1.8,75,0.00,,,0.00,WUHU216HW,2013-03-03 20:24:00,
2013-03-03 12:28:00,47.2,40.0,29.68,ESE,113,0.0,1.1,76,0.00,,,0.00,WUHU216HW,2013-03-03 20:28:00,
2013-03-03 12:29:00,47.3,39.8,29.68,NNW,338,0.7,1.1,75,0.00,,,0.00,WUHU216HW,2013-03-03 20:29:00,
2013-03-03 12:33:00,47.5,39.6,29.68,NNW,338,2.5,2.5,74,0.00,,,0.00,WUHU216HW,2013-03-03 20:33:00,
2013-03-03 12:34:00,47.7,39.4,29.68,NNW,338,0.4,2.5,73,0.00,,,0.00,WUHU216HW,2013-03-03 20:34:00,
2013-03-03 12:38:00,47.5,39.2,29.68,North,0,1.1,2.5,73,0.00,,,0.00,WUHU216HW,2013-03-03 20:38:00,
2013-03-03 12:39:00,47.5,39.2,29.68,NNW,338,0.7,2.5,73,0.00,,,0.00,WUHU216HW,2013-03-03 20:39:00,
2013-03-03 12:43:00,47.3,38.4,29.68,North,0,1.6,2.0,71,0.00,,,0.00,WUHU216HW,2013-03-03 20:43:00,
2013-03-03 12:44:00,47.3,37.7,29.68,NNW,338,1.8,2.0,69,0.00,,,0.00,WUHU216HW,2013-03-03 20:44:00,
2013-03-03 12:48:00,47.2,37.9,29.68,WSW,248,0.0,2.0,70,0.00,,,0.00,WUHU216HW,2013-03-03 20:48:00,
2013-03-03 12:49:00,47.2,37.9,29.68,WSW,248,0.0,2.0,70,0.00,,,0.00,WUHU216HW,2013-03-03 20:49:00,
2013-03-03 12:53:00,47.2,38.6,29.67,SSE,158,0.0,2.2,72,0.00,,,0.00,WUHU216HW,2013-03-03 20:53:00,
2013-03-03 12:54:00,47.2,38.6,29.67,SSE,158,0.0,2.2,72,0.00,,,0.00,WUHU216HW,2013-03-03 20:54:00,
2013-03-03 12:58:00,47.5,38.9,29.67,North,0,0.7,2.2,72,0.00,,,0.00,WUHU216HW,2013-03-03 20:58:00,
2013-03-03 12:59:00,47.5,38.9,29.67,North,0,0.7,2.2,72,0.00,,,0.00,WUHU216HW,2013-03-03 20:59:00,
2013-03-03 13:04:00,47.9,39.2,29.67,NNW,338,0.0,1.1,72,0.00,,,0.00,WUHU216HW,2013-03-03 21:04:00,
2013-03-03 13:09:00,48.6,39.6,29.67,NNW,338,0.4,0.9,71,0.00,,,0.00,WUHU216HW,2013-03-03 21:09:00,
2013-03-03 13:14:00,48.6,39.6,29.67,ESE,113,3.1,3.1,71,0.00,,,0.00,WUHU216HW,2013-03-03 21:14:00,
2013-03-03 13:19:00,48.6,38.5,29.67,ENE,68,0.4,3.1,68,0.00,,,0.00,WUHU216HW,2013-03-03 21:19:00,
2013-03-03 13:24:00,48.4,38.7,29.67,ESE,113,1.3,1.3,69,0.00,,,0.00,WUHU216HW,2013-03-03 21:24:00,
2013-03-03 13:29:00,48.2,38.2,29.67,NW,315,0.2,1.3,68,0.00,,,0.00,WUHU216HW,2013-03-03 21:29:00,
2013-03-03 13:30:00,48.2,37.7,29.67,WNW,293,0.2,1.3,67,0.00,,,0.00,WUHU216HW,2013-03-03 21:30:00,
2013-03-03 13:34:00,48.1,38.4,29.67,NNW,338,0.4,1.3,69,0.00,,,0.00,WUHU216HW,2013-03-03 21:34:00,
2013-03-03 13:35:00,48.1,38.4,29.67,NNW,338,0.2,1.3,69,0.00,,,0.00,WUHU216HW,2013-03-03 21:35:00,
2013-03-03 13:39:00,47.9,38.2,29.67,NNW,338,0.0,0.7,69,0.00,,,0.00,WUHU216HW,2013-03-03 21:39:00,
2013-03-03 13:40:00,47.9,38.2,29.67,NNW,338,0.0,0.7,69,0.00,,,0.00,WUHU216HW,2013-03-03 21:40:00,
2013-03-03 13:44:00,47.7,38.0,29.67,NNW,338,0.0,0.4,69,0.00,,,0.00,WUHU216HW,2013-03-03 21:44:00,
2013-03-03 13:45:00,47.7,38.0,29.67,NNE,23,0.2,0.4,69,0.00,,,0.00,WUHU216HW,2013-03-03 21:45:00,
2013-03-03 13:49:00,47.7,38.0,29.67,ESE,113,2.0,2.0,69,0.00,,,0.00,WUHU216HW,2013-03-03 21:49:00,
2013-03-03 13:50:00,47.7,37.6,29.67,ESE,113,0.7,2.0,68,0.00,,,0.00,WUHU216HW,2013-03-03 21:50:00,
2013-03-03 13:54:00,47.7,37.6,29.67,ENE,68,0.0,2.0,68,0.00,,,0.00,WUHU216HW,2013-03-03 21:54:00,
2013-03-03 13:55:00,47.7,37.6,29.67,East,90,0.0,2.0,68,0.00,,,0.00,WUHU216HW,2013-03-03 21:55:00,
2013-03-03 14:00:00,47.9,37.8,29.67,East,90,0.0,0.4,68,0.00,,,0.00,WUHU216HW,2013-03-03 22:00:00,
2013-03-03 14:01:00,47.9,38.2,29.67,SE,135,0.9,0.9,69,0.00,,,0.00,WUHU216HW,2013-03-03 22:01:00,
2013-03-03 14:05:00,47.9,38.2,29.67,North,0,1.3,1.3,69,0.00,,,0.00,WUHU216HW,2013-03-03 22:05:00,
2013-03-03 14:06:00,47.9,38.2,29.67,North,0,0.2,1.3,69,0.00,,,0.00,WUHU216HW,2013-03-03 22:06:00,
2013-03-03 14:10:00,47.9,38.2,29.67,SSE,158,0.0,1.3,69,0.00,,,0.00,WUHU216HW,2013-03-03 22:10:00,
2013-03-03 14:11:00,47.9,37.8,29.67,SSE,158,0.0,1.3,68,0.00,,,0.00,WUHU216HW,2013-03-03 22:11:00,
2013-03-03 14:15:00,47.7,37.3,29.67,ESE,113,0.4,0.4,67,0.00,,,0.00,WUHU216HW,2013-03-03 22:15:00,
2013-03-03 14:16:00,47.5,36.7,29.67,East,90,0.0,0.4,66,0.00,,,0.00,WUHU216HW,2013-03-03 22:16:00,
2013-03-03 14:20:00,47.3,36.6,29.67,East,90,0.0,0.4,66,0.00,,,0.00,WUHU216HW,2013-03-03 22:20:00,
2013-03-03 14:21:00,47.2,36.7,29.67,NE,45,0.0,0.4,67,0.00,,,0.00,WUHU216HW,2013-03-03 22:21:00,
2013-03-03 14:25:00,47.2,37.2,29.67,ENE,68,0.0,0.4,68,0.00,,,0.00,WUHU216HW,2013-03-03 22:25:00,
2013-03-03 14:26:00,47.2,37.2,29.67,ENE,68,0.0,0.4,68,0.00,,,0.00,WUHU216HW,2013-03-03 22:26:00,
2013-03-03 14:27:00,47.2,37.2,29.67,ENE,68,0.0,0.4,68,0.00,,,0.00,WUHU216HW,2013-03-03 22:27:00,
2013-03-03 14:30:00,47.2,37.2,29.67,ENE,68,0.0,0.4,68,0.00,,,0.00,WUHU216HW,2013-03-03 22:30:00,
2013-03-03 14:31:00,47.2,37.2,29.67,ENE,68,0.0,0.4,68,0.00,,,0.00,WUHU216HW,2013-03-03 22:31:00,
2013-03-03 14:32:00,47.2,37.2,29.67,ENE,68,0.0,0.0,68,0.00,,,0.00,WUHU216HW,2013-03-03 22:32:00,
2013-03-03 14:35:00,47.3,37.3,29.67,SSW,203,0.2,0.2,68,0.00,,,0.00,WUHU216HW,2013-03-03 22:35:00,
2013-03-03 14:36:00,47.2,37.2,29.68,ENE,68,0.0,0.2,68,0.00,,,0.00,WUHU216HW,2013-03-03 22:36:00,
2013-03-03 14:37:00,47.2,37.2,29.68,ENE,68,0.0,0.2,68,0.00,,,0.00,WUHU216HW,2013-03-03 22:37:00,
2013-03-03 14:40:00,47.3,37.7,29.68,East,90,0.0,0.2,69,0.00,,,0.00,WUHU216HW,2013-03-03 22:40:00,
2013-03-03 14:42:00,47.3,37.7,29.67,SSW,203,0.0,0.2,69,0.00,,,0.00,WUHU216HW,2013-03-03 22:42:00,
2013-03-03 14:45:00,47.3,37.7,29.68,NNE,23,1.1,1.1,69,0.00,,,0.00,WUHU216HW,2013-03-03 22:45:00,
2013-03-03 14:47:00,47.2,37.5,29.68,NNE,23,0.0,1.1,69,0.00,,,0.00,WUHU216HW,2013-03-03 22:47:00,
2013-03-03 14:50:00,46.8,37.6,29.68,NE,45,0.0,1.1,70,0.00,,,0.00,WUHU216HW,2013-03-03 22:50:00,
2013-03-03 14:52:00,46.8,37.6,29.68,ESE,113,1.6,1.6,70,0.00,,,0.00,WUHU216HW,2013-03-03 22:52:00,
2013-03-03 14:53:00,46.8,37.6,29.68,ESE,113,0.0,1.6,70,0.00,,,0.00,WUHU216HW,2013-03-03 22:53:00,
2013-03-03 14:55:00,46.4,37.6,29.68,ESE,113,0.0,1.6,71,0.00,,,0.00,WUHU216HW,2013-03-03 22:55:00,
2013-03-03 14:56:00,46.4,37.6,29.68,ESE,113,0.0,1.6,71,0.00,,,0.00,WUHU216HW,2013-03-03 22:56:00,
2013-03-03 14:57:00,46.4,37.6,29.68,ESE,113,0.0,1.6,71,0.00,,,0.00,WUHU216HW,2013-03-03 22:57:00,
2013-03-03 14:58:00,46.4,37.6,29.68,ESE,113,0.0,1.6,71,0.00,,,0.00,WUHU216HW,2013-03-03 22:58:00,
2013-03-03 15:01:00,46.4,38.0,29.68,NNW,338,0.0,1.6,72,0.00,,,0.00,WUHU216HW,2013-03-03 23:01:00,
2013-03-03 15:02:00,46.3,37.8,29.68,NNW,338,0.0,0.2,72,0.00,,,0.00,WUHU216HW,2013-03-03 23:02:00,
2013-03-03 15:03:00,46.3,37.8,29.68,NNW,338,0.0,0.2,72,0.00,,,0.00,WUHU216HW,2013-03-03 23:03:00,
2013-03-03 15:06:00,46.3,37.8,29.68,WNW,293,0.0,0.2,72,0.00,,,0.00,WUHU216HW,2013-03-03 23:06:00,
2013-03-03 15:07:00,46.1,37.6,29.68,NW,315,0.0,0.2,72,0.00,,,0.00,WUHU216HW,2013-03-03 23:07:00,
2013-03-03 15:08:00,46.1,37.6,29.68,NW,315,0.0,0.2,72,0.00,,,0.00,WUHU216HW,2013-03-03 23:08:00,
2013-03-03 15:11:00,45.9,37.5,29.68,South,180,0.0,0.4,72,0.00,,,0.00,WUHU216HW,2013-03-03 23:11:00,
2013-03-03 15:12:00,45.9,37.5,29.68,South,180,0.0,0.4,72,0.00,,,0.00,WUHU216HW,2013-03-03 23:12:00,
2013-03-03 15:14:00,45.7,37.3,29.68,South,180,0.0,0.4,72,0.00,,,0.00,WUHU216HW,2013-03-03 23:14:00,
2013-03-03 15:16:00,45.9,37.5,29.68,South,180,0.0,0.4,72,0.00,,,0.00,WUHU216HW,2013-03-03 23:16:00,
2013-03-03 15:18:00,45.9,37.5,29.68,South,180,0.0,0.4,72,0.00,,,0.00,WUHU216HW,2013-03-03 23:18:00,
2013-03-03 15:19:00,45.9,37.5,29.68,South,180,0.0,0.4,72,0.00,,,0.00,WUHU216HW,2013-03-03 23:19:00,
2013-03-03 15:21:00,45.9,37.5,29.68,South,180,0.0,0.0,72,0.00,,,0.00,WUHU216HW,2013-03-03 23:21:00,
2013-03-03 15:24:00,45.9,37.7,29.68,North,0,0.0,0.0,73,0.00,,,0.00,WUHU216HW,2013-03-03 23:24:00,
2013-03-03 15:26:00,45.9,37.7,29.68,North,0,0.0,0.0,73,0.00,,,0.00,WUHU216HW,2013-03-03 23:26:00,
2013-03-03 15:29:00,45.9,37.7,29.68,NNE,23,0.0,0.0,73,0.00,,,0.00,WUHU216HW,2013-03-03 23:29:00,
2013-03-03 15:31:00,45.9,37.7,29.68,NNE,23,0.0,0.0,73,0.00,,,0.00,WUHU216HW,2013-03-03 23:31:00,
2013-03-03 15:34:00,45.9,37.7,29.68,NNE,23,0.0,0.0,73,0.00,,,0.00,WUHU216HW,2013-03-03 23:34:00,
2013-03-03 15:58:00,47.9,38.5,29.68,NW,315,0.0,0.0,70,0.00,,,0.00,WUHU216HW,2013-03-03 23:58:00,
2013-03-03 16:01:00,48.2,38.9,29.68,East,90,0.4,0.4,70,0.00,,,0.00,WUHU216HW,2013-03-04 00:01:00,
2013-03-03 16:03:00,48.2,38.9,29.68,East,90,0.4,2.0,70,0.00,,,0.00,WUHU216HW,2013-03-04 00:03:00,
2013-03-03 16:08:00,48.2,38.9,29.68,East,90,0.4,2.0,70,0.00,,,0.00,WUHU216HW,2013-03-04 00:08:00,
2013-03-03 16:32:00,47.9,37.5,29.68,North,0,0.4,0.4,67,0.00,,,0.00,WUHU216HW,2013-03-04 00:32:00,
2013-03-03 16:37:00,47.2,37.2,29.68,ESE,113,1.1,1.1,68,0.00,,,0.00,WUHU216HW,2013-03-04 00:37:00,
2013-03-03 16:38:00,47.2,37.2,29.68,SSE,158,0.4,1.1,68,0.00,,,0.00,WUHU216HW,2013-03-04 00:38:00,
2013-03-03 16:42:00,46.4,36.5,29.68,SSE,158,0.0,1.1,68,0.00,,,0.00,WUHU216HW,2013-03-04 00:42:00,
2013-03-03 16:43:00,46.3,36.3,29.68,SSE,158,0.0,1.1,68,0.00,,,0.00,WUHU216HW,2013-03-04 00:43:00,
2013-03-03 16:47:00,45.9,36.4,29.68,SSE,158,0.0,0.4,69,0.00,,,0.00,WUHU216HW,2013-03-04 00:47:00,
2013-03-03 16:48:00,45.9,36.4,29.68,SSE,158,0.0,0.4,69,0.00,,,0.00,WUHU216HW,2013-03-04 00:48:00,
2013-03-03 16:53:00,45.5,36.4,29.68,SSE,158,0.0,0.0,70,0.00,,,0.00,WUHU216HW,2013-03-04 00:53:00,
2013-03-03 16:58:00,45.0,36.6,29.68,SSE,158,0.0,0.0,72,0.00,,,0.00,WUHU216HW,2013-03-04 00:58:00,
2013-03-03 17:03:00,44.3,35.8,29.69,SSE,158,0.0,0.0,72,0.00,,,0.00,WUHU216HW,2013-03-04 01:03:00,
2013-03-03 17:08:00,43.9,35.8,29.69,SSE,158,0.0,0.0,73,0.00,,,0.00,WUHU216HW,2013-03-04 01:08:00,
2013-03-03 17:09:00,43.9,35.8,29.69,SSE,158,0.0,0.0,73,0.00,,,0.00,WUHU216HW,2013-03-04 01:09:00,
2013-03-03 17:13:00,43.6,35.5,29.69,SSE,158,0.0,0.0,73,0.00,,,0.00,WUHU216HW,2013-03-04 01:13:00,
2013-03-03 17:14:00,43.6,35.5,29.69,SSE,158,0.0,0.0,73,0.00,,,0.00,WUHU216HW,2013-03-04 01:14:00,
2013-03-03 17:18:00,43.4,35.6,29.69,SSE,158,0.0,0.0,74,0.00,,,0.00,WUHU216HW,2013-03-04 01:18:00,
2013-03-03 17:19:00,43.2,35.5,29.69,SSE,158,0.0,0.0,74,0.00,,,0.00,WUHU216HW,2013-03-04 01:19:00,
2013-03-03 17:23:00,43.0,35.3,29.69,SSE,158,0.0,0.0,74,0.00,,,0.00,WUHU216HW,2013-03-04 01:23:00,
2013-03-03 17:24:00,42.8,35.1,29.69,SSE,158,0.0,0.0,74,0.00,,,0.00,WUHU216HW,2013-03-04 01:24:00,
2013-03-03 17:28:00,42.8,35.1,29.69,SSE,158,0.0,0.0,74,0.00,,,0.00,WUHU216HW,2013-03-04 01:28:00,
2013-03-03 17:29:00,42.8,35.1,29.69,SSE,158,0.0,0.0,74,0.00,,,0.00,WUHU216HW,2013-03-04 01:29:00,
2013-03-03 17:33:00,42.5,35.1,29.69,SSE,158,0.0,0.0,75,0.00,,,0.00,WUHU216HW,2013-03-04 01:33:00,
2013-03-03 17:34:00,42.5,35.1,29.69,SSE,158,0.0,0.0,75,0.00,,,0.00,WUHU216HW,2013-03-04 01:34:00,
2013-03-03 17:38:00,42.1,35.1,29.69,SSE,158,0.0,0.0,76,0.00,,,0.00,WUHU216HW,2013-03-04 01:38:00,
2013-03-03 17:39:00,42.1,35.1,29.69,SSE,158,0.0,0.0,76,0.00,,,0.00,WUHU216HW,2013-03-04 01:39:00,
2013-03-03 17:40:00,42.1,35.1,29.69,SSE,158,0.0,0.0,76,0.00,,,0.00,WUHU216HW,2013-03-04 01:40:00,
2013-03-03 17:43:00,41.9,34.9,29.69,SSE,158,0.0,0.0,76,0.00,,,0.00,WUHU216HW,2013-03-04 01:43:00,
2013-03-03 17:44:00,41.9,34.9,29.69,SSE,158,0.0,0.0,76,0.00,,,0.00,WUHU216HW,2013-03-04 01:44:00,
2013-03-03 17:45:00,41.9,34.9,29.69,SSE,158,0.0,0.0,76,0.00,,,0.00,WUHU216HW,2013-03-04 01:45:00,
2013-03-03 17:48:00,41.8,35.0,29.69,SSE,158,0.0,0.0,77,0.00,,,0.00,WUHU216HW,2013-03-04 01:48:00,
2013-03-03 17:49:00,41.8,35.0,29.69,SSE,158,0.0,0.0,77,0.00,,,0.00,WUHU216HW,2013-03-04 01:49:00,
2013-03-03 17:50:00,41.8,35.0,29.69,SSE,158,0.0,0.0,77,0.00,,,0.00,WUHU216HW,2013-03-04 01:50:00,
2013-03-03 17:54:00,41.6,34.8,29.70,SSE,158,0.0,0.0,77,0.00,,,0.00,WUHU216HW,2013-03-04 01:54:00,
2013-03-03 17:55:00,41.6,34.8,29.70,SSE,158,0.0,0.0,77,0.00,,,0.00,WUHU216HW,2013-03-04 01:55:00,
2013-03-03 17:59:00,41.4,34.7,29.70,SSE,158,0.0,0.0,77,0.00,,,0.00,WUHU216HW,2013-03-04 01:59:00,
2013-03-03 18:00:00,41.4,34.7,29.70,SSE,158,0.0,0.0,77,0.00,,,0.00,WUHU216HW,2013-03-04 02:00:00,
2013-03-03 18:04:00,41.2,34.8,29.70,SSE,158,0.0,0.0,78,0.00,,,0.00,WUHU216HW,2013-03-04 02:04:00,
2013-03-03 18:05:00,41.0,34.7,29.70,SSE,158,0.0,0.0,78,0.00,,,0.00,WUHU216HW,2013-03-04 02:05:00,
2013-03-03 18:09:00,40.9,34.5,29.70,SSE,158,0.0,0.0,78,0.00,,,0.00,WUHU216HW,2013-03-04 02:09:00,
2013-03-03 18:10:00,40.7,34.3,29.69,SSE,158,0.0,0.0,78,0.00,,,0.00,WUHU216HW,2013-03-04 02:10:00,
2013-03-03 18:14:00,40.7,34.7,29.70,SSE,158,0.0,0.0,79,0.00,,,0.00,WUHU216HW,2013-03-04 02:14:00,
2013-03-03 18:16:00,40.5,34.5,29.70,SSE,158,0.0,0.0,79,0.00,,,0.00,WUHU216HW,2013-03-04 02:16:00,
2013-03-03 18:19:00,40.3,34.3,29.70,SSE,158,0.0,0.0,79,0.00,,,0.00,WUHU216HW,2013-03-04 02:19:00,
2013-03-03 18:20:00,40.3,34.3,29.70,SSE,158,0.0,0.0,79,0.00,,,0.00,WUHU216HW,2013-03-04 02:20:00,
2013-03-03 18:21:00,40.3,34.3,29.70,SSE,158,0.0,0.0,79,0.00,,,0.00,WUHU216HW,2013-03-04 02:21:00,
2013-03-03 18:24:00,40.1,34.1,29.70,SSE,158,0.0,0.0,79,0.00,,,0.00,WUHU216HW,2013-03-04 02:24:00,
2013-03-03 18:25:00,40.0,33.9,29.70,SSE,158,0.0,0.0,79,0.00,,,0.00,WUHU216HW,2013-03-04 02:25:00,
2013-03-03 18:26:00,40.0,33.9,29.70,SSE,158,0.0,0.0,79,0.00,,,0.00,WUHU216HW,2013-03-04 02:26:00,
2013-03-03 18:29:00,39.8,33.9,29.70,SSE,158,0.0,0.0,79,0.00,,,0.00,WUHU216HW,2013-03-04 02:29:00,
2013-03-03 18:30:00,39.8,33.9,29.70,SSE,158,0.0,0.0,79,0.00,,,0.00,WUHU216HW,2013-03-04 02:30:00,
2013-03-03 18:31:00,40.0,33.9,29.70,SSE,158,0.0,0.0,79,0.00,,,0.00,WUHU216HW,2013-03-04 02:31:00,
2013-03-03 18:34:00,39.6,34.0,29.70,SSE,158,0.0,0.0,80,0.00,,,0.00,WUHU216HW,2013-03-04 02:34:00,
2013-03-03 18:35:00,39.6,34.0,29.70,SSE,158,0.0,0.0,80,0.00,,,0.00,WUHU216HW,2013-03-04 02:35:00,
2013-03-03 18:36:00,39.6,34.0,29.70,SSE,158,0.0,0.0,80,0.00,,,0.00,WUHU216HW,2013-03-04 02:36:00,
2013-03-03 18:39:00,39.4,33.9,29.70,SSE,158,0.0,0.0,80,0.00,,,0.00,WUHU216HW,2013-03-04 02:39:00,
2013-03-03 18:40:00,39.4,33.9,29.70,SSE,158,0.0,0.0,80,0.00,,,0.00,WUHU216HW,2013-03-04 02:40:00,
2013-03-03 18:41:00,39.4,33.9,29.70,SSE,158,0.0,0.0,80,0.00,,,0.00,WUHU216HW,2013-03-04 02:41:00,
2013-03-03 18:44:00,39.2,33.7,29.70,SSE,158,0.0,0.0,80,0.00,,,0.00,WUHU216HW,2013-03-04 02:44:00,
2013-03-03 18:45:00,39.2,33.7,29.70,SSE,158,0.0,0.0,80,0.00,,,0.00,WUHU216HW,2013-03-04 02:45:00,
2013-03-03 18:46:00,39.2,33.7,29.70,SSE,158,0.0,0.0,80,0.00,,,0.00,WUHU216HW,2013-03-04 02:46:00,
2013-03-03 18:49:00,39.1,33.8,29.70,SSE,158,0.0,0.0,81,0.00,,,0.00,WUHU216HW,2013-03-04 02:49:00,
2013-03-03 18:50:00,39.1,33.8,29.70,SSE,158,0.0,0.0,81,0.00,,,0.00,WUHU216HW,2013-03-04 02:50:00,
2013-03-03 18:51:00,38.9,33.6,29.70,SSE,158,0.0,0.0,81,0.00,,,0.00,WUHU216HW,2013-03-04 02:51:00,
2013-03-03 18:54:00,38.7,33.4,29.70,SSE,158,0.0,0.0,81,0.00,,,0.00,WUHU216HW,2013-03-04 02:54:00,
2013-03-03 18:55:00,38.7,33.4,29.70,SSE,158,0.0,0.0,81,0.00,,,0.00,WUHU216HW,2013-03-04 02:55:00,
2013-03-03 18:56:00,38.7,33.4,29.70,SSE,158,0.0,0.0,81,0.00,,,0.00,WUHU216HW,2013-03-04 02:56:00,
2013-03-03 18:59:00,38.5,33.5,29.71,SSE,158,0.0,0.0,82,0.00,,,0.00,WUHU216HW,2013-03-04 02:59:00,
2013-03-03 19:00:00,38.5,33.5,29.71,SSE,158,0.0,0.0,82,0.00,,,0.00,WUHU216HW,2013-03-04 03:00:00,
2013-03-03 19:01:00,38.5,33.5,29.71,SSE,158,0.0,0.0,82,0.00,,,0.00,WUHU216HW,2013-03-04 03:01:00,
2013-03-03 19:02:00,38.5,33.5,29.71,SSE,158,0.0,0.0,82,0.00,,,0.00,WUHU216HW,2013-03-04 03:02:00,
2013-03-03 19:05:00,38.5,33.5,29.70,SSE,158,0.0,0.0,82,0.00,,,0.00,WUHU216HW,2013-03-04 03:05:00,
2013-03-03 19:07:00,38.3,33.3,29.71,SSE,158,0.0,0.0,82,0.00,,,0.00,WUHU216HW,2013-03-04 03:07:00,
2013-03-03 19:10:00,38.3,33.3,29.70,SSE,158,0.0,0.0,82,0.00,,,0.00,WUHU216HW,2013-03-04 03:10:00,
2013-03-03 19:12:00,38.2,33.1,29.70,SSE,158,0.0,0.0,82,0.00,,,0.00,WUHU216HW,2013-03-04 03:12:00,
2013-03-03 19:15:00,38.2,33.5,29.70,SSE,158,0.0,0.0,83,0.00,,,0.00,WUHU216HW,2013-03-04 03:15:00,
2013-03-03 19:17:00,38.2,33.5,29.71,SSE,158,0.0,0.0,83,0.00,,,0.00,WUHU216HW,2013-03-04 03:17:00,
2013-03-03 19:20:00,38.0,33.6,29.71,SSE,158,0.0,0.0,84,0.00,,,0.00,WUHU216HW,2013-03-04 03:20:00,
2013-03-03 19:22:00,38.0,33.6,29.71,SSE,158,0.0,0.0,84,0.00,,,0.00,WUHU216HW,2013-03-04 03:22:00,
2013-03-03 19:23:00,38.0,33.6,29.71,SSE,158,0.0,0.0,84,0.00,,,0.00,WUHU216HW,2013-03-04 03:23:00,
2013-03-03 19:25:00,38.0,33.6,29.71,SSE,158,0.0,0.0,84,0.00,,,0.00,WUHU216HW,2013-03-04 03:25:00,
2013-03-03 19:27:00,38.0,33.6,29.71,SSE,158,0.0,0.0,84,0.00,,,0.00,WUHU216HW,2013-03-04 03:27:00,
2013-03-03 19:28:00,38.0,33.6,29.71,SSE,158,0.0,0.0,84,0.00,,,0.00,WUHU216HW,2013-03-04 03:28:00,
2013-03-03 19:30:00,38.0,33.6,29.71,SSE,158,0.0,0.0,84,0.00,,,0.00,WUHU216HW,2013-03-04 03:30:00,
2013-03-03 19:32:00,38.0,33.6,29.71,SSE,158,0.0,0.0,84,0.00,,,0.00,WUHU216HW,2013-03-04 03:32:00,
2013-03-03 19:33:00,38.0,33.6,29.71,SSE,158,0.0,0.0,84,0.00,,,0.00,WUHU216HW,2013-03-04 03:33:00,
2013-03-03 19:35:00,37.8,33.4,29.71,SSE,158,0.0,0.0,84,0.00,,,0.00,WUHU216HW,2013-03-04 03:35:00,
2013-03-03 19:37:00,37.8,33.4,29.71,SSE,158,0.0,0.0,84,0.00,,,0.00,WUHU216HW,2013-03-04 03:37:00,
2013-03-03 19:38:00,37.8,33.4,29.71,SSE,158,0.0,0.0,84,0.00,,,0.00,WUHU216HW,2013-03-04 03:38:00,
2013-03-03 19:40:00,37.8,33.4,29.71,SSE,158,0.0,0.0,84,0.00,,,0.00,WUHU216HW,2013-03-04 03:40:00,
2013-03-03 19:41:00,37.8,33.4,29.71,SSE,158,0.0,0.0,84,0.00,,,0.00,WUHU216HW,2013-03-04 03:41:00,
2013-03-03 19:42:00,37.8,33.4,29.71,SSE,158,0.0,0.0,84,0.00,,,0.00,WUHU216HW,2013-03-04 03:42:00,
2013-03-03 19:43:00,37.8,33.4,29.71,SSE,158,0.0,0.0,84,0.00,,,0.00,WUHU216HW,2013-03-04 03:43:00,
2013-03-03 19:46:00,37.8,33.7,29.71,SSE,158,0.0,0.0,85,0.00,,,0.00,WUHU216HW,2013-03-04 03:46:00,
2013-03-03 19:48:00,37.8,33.7,29.71,SSE,158,0.0,0.0,85,0.00,,,0.00,WUHU216HW,2013-03-04 03:48:00,
2013-03-03 19:51:00,37.8,33.7,29.71,SSE,158,0.0,0.0,85,0.00,,,0.00,WUHU216HW,2013-03-04 03:51:00,
2013-03-03 19:52:00,37.8,33.7,29.71,SSE,158,0.0,0.0,85,0.00,,,0.00,WUHU216HW,2013-03-04 03:52:00,
2013-03-03 19:53:00,37.8,33.7,29.71,SSE,158,0.0,0.0,85,0.00,,,0.00,WUHU216HW,2013-03-04 03:53:00,
2013-03-03 19:56:00,37.8,33.7,29.71,SSE,158,0.0,0.0,85,0.00,,,0.00,WUHU216HW,2013-03-04 03:56:00,
2013-03-03 19:58:00,37.6,33.5,29.71,SSE,158,0.0,0.0,85,0.00,,,0.00,WUHU216HW,2013-03-04 03:58:00,
2013-03-03 20:01:00,37.4,33.3,29.71,SSE,158,0.0,0.0,85,0.00,,,0.00,WUHU216HW,2013-03-04 04:01:00,
2013-03-03 20:03:00,37.3,33.1,29.71,SSE,158,0.0,0.0,85,0.00,,,0.00,WUHU216HW,2013-03-04 04:03:00,
2013-03-03 20:06:00,37.1,32.9,29.71,SSE,158,0.0,0.0,85,0.00,,,0.00,WUHU216HW,2013-03-04 04:06:00,
2013-03-03 20:08:00,37.1,32.9,29.71,SSE,158,0.0,0.0,85,0.00,,,0.00,WUHU216HW,2013-03-04 04:08:00,
2013-03-03 20:11:00,37.1,32.9,29.71,SSE,158,0.0,0.0,85,0.00,,,0.00,WUHU216HW,2013-03-04 04:11:00,
2013-03-03 20:12:00,37.1,32.9,29.71,SSE,158,0.0,0.0,85,0.00,,,0.00,WUHU216HW,2013-03-04 04:12:00,
2013-03-03 20:13:00,36.9,33.0,29.71,SSE,158,0.0,0.0,86,0.00,,,0.00,WUHU216HW,2013-03-04 04:13:00,
2013-03-03 20:14:00,36.9,33.0,29.71,SSE,158,0.0,0.0,86,0.00,,,0.00,WUHU216HW,2013-03-04 04:14:00,
2013-03-03 20:16:00,36.9,33.0,29.71,SSE,158,0.0,0.0,86,0.00,,,0.00,WUHU216HW,2013-03-04 04:16:00,
2013-03-03 20:17:00,36.9,33.0,29.71,SSE,158,0.0,0.0,86,0.00,,,0.00,WUHU216HW,2013-03-04 04:17:00,
2013-03-03 20:18:00,36.7,32.9,29.70,SSE,158,0.0,0.0,86,0.00,,,0.00,WUHU216HW,2013-03-04 04:18:00,
2013-03-03 20:19:00,36.7,32.9,29.70,SSE,158,0.0,0.0,86,0.00,,,0.00,WUHU216HW,2013-03-04 04:19:00,
2013-03-03 20:22:00,36.7,32.9,29.71,SSE,158,0.0,0.0,86,0.00,,,0.00,WUHU216HW,2013-03-04 04:22:00,
2013-03-03 20:23:00,36.5,32.7,29.70,SSE,158,0.0,0.0,86,0.00,,,0.00,WUHU216HW,2013-03-04 04:23:00,
2013-03-03 20:24:00,36.5,32.7,29.70,SSE,158,0.0,0.0,86,0.00,,,0.00,WUHU216HW,2013-03-04 04:24:00,
2013-03-03 20:27:00,36.5,32.7,29.70,SSE,158,0.0,0.0,86,0.00,,,0.00,WUHU216HW,2013-03-04 04:27:00,
2013-03-03 20:29:00,36.4,32.8,29.70,SSE,158,0.0,0.0,87,0.00,,,0.00,WUHU216HW,2013-03-04 04:29:00,
2013-03-03 20:32:00,36.4,32.8,29.70,SSE,158,0.0,0.0,87,0.00,,,0.00,WUHU216HW,2013-03-04 04:32:00,
2013-03-03 20:34:00,36.4,32.8,29.71,SSE,158,0.0,0.0,87,0.00,,,0.00,WUHU216HW,2013-03-04 04:34:00,
2013-03-03 20:37:00,36.4,32.8,29.70,SSE,158,0.0,0.0,87,0.00,,,0.00,WUHU216HW,2013-03-04 04:37:00,
2013-03-03 20:39:00,36.2,32.6,29.70,SSE,158,0.0,0.0,87,0.00,,,0.00,WUHU216HW,2013-03-04 04:39:00,
2013-03-03 20:42:00,36.0,32.4,29.70,SSE,158,0.0,0.0,87,0.00,,,0.00,WUHU216HW,2013-03-04 04:42:00,
2013-03-03 20:44:00,36.0,32.4,29.70,SSE,158,0.0,0.0,87,0.00,,,0.00,WUHU216HW,2013-03-04 04:44:00,
2013-03-03 20:45:00,36.0,32.4,29.70,SSE,158,0.0,0.0,87,0.00,,,0.00,WUHU216HW,2013-03-04 04:45:00,
2013-03-03 20:47:00,36.0,32.4,29.70,SSE,158,0.0,0.0,87,0.00,,,0.00,WUHU216HW,2013-03-04 04:47:00,
2013-03-03 20:49:00,35.8,32.2,29.70,SSE,158,0.0,0.0,87,0.00,,,0.00,WUHU216HW,2013-03-04 04:49:00,
2013-03-03 20:50:00,35.8,32.2,29.70,SSE,158,0.0,0.0,87,0.00,,,0.00,WUHU216HW,2013-03-04 04:50:00,
2013-03-03 20:52:00,35.6,31.8,29.70,SSE,158,0.0,0.0,86,0.00,,,0.00,WUHU216HW,2013-03-04 04:52:00,
2013-03-03 20:55:00,35.6,31.8,29.70,SSE,158,0.0,0.0,86,0.00,,,0.00,WUHU216HW,2013-03-04 04:55:00,
2013-03-03 20:56:00,35.6,31.8,29.70,SSE,158,0.0,0.0,86,0.00,,,0.00,WUHU216HW,2013-03-04 04:56:00,
2013-03-03 20:57:00,35.5,31.6,29.70,SSE,158,0.0,0.0,86,0.00,,,0.00,WUHU216HW,2013-03-04 04:57:00,
2013-03-03 21:00:00,35.5,31.6,29.70,SSE,158,0.0,0.0,86,0.00,,,0.00,WUHU216HW,2013-03-04 05:00:00,
2013-03-03 21:05:00,35.3,31.4,29.70,SSE,158,0.0,0.0,86,0.00,,,0.00,WUHU216HW,2013-03-04 05:05:00,
2013-03-03 21:10:00,34.9,31.1,29.70,SSE,158,0.0,0.0,86,0.00,,,0.00,WUHU216HW,2013-03-04 05:10:00,
2013-03-03 21:15:00,34.9,31.3,29.70,SSE,158,0.0,0.0,87,0.00,,,0.00,WUHU216HW,2013-03-04 05:15:00,
2013-03-03 21:20:00,34.9,31.3,29.70,SSE,158,0.0,0.7,87,0.00,,,0.00,WUHU216HW,2013-03-04 05:20:00,
2013-03-03 21:25:00,35.5,32.5,29.71,SSE,158,0.0,0.7,89,0.00,,,0.00,WUHU216HW,2013-03-04 05:25:00,
2013-03-03 21:26:00,35.5,32.5,29.71,SSE,158,0.0,0.7,89,0.00,,,0.00,WUHU216HW,2013-03-04 05:26:00,
2013-03-03 21:30:00,35.6,32.7,29.71,SSE,158,0.0,0.0,89,0.00,,,0.00,WUHU216HW,2013-03-04 05:30:00,
2013-03-03 21:31:00,35.6,32.7,29.71,SSE,158,0.0,0.0,89,0.00,,,0.00,WUHU216HW,2013-03-04 05:31:00,
2013-03-03 21:35:00,35.5,32.2,29.71,SSE,158,0.0,0.0,88,0.00,,,0.00,WUHU216HW,2013-03-04 05:35:00,
2013-03-03 21:36:00,35.5,32.2,29.71,SSE,158,0.0,0.0,88,0.00,,,0.00,WUHU216HW,2013-03-04 05:36:00,
2013-03-03 21:40:00,35.1,31.9,29.71,SSE,158,0.0,0.0,88,0.00,,,0.00,WUHU216HW,2013-03-04 05:40:00,
2013-03-03 21:41:00,35.1,31.9,29.71,SSE,158,0.0,0.0,88,0.00,,,0.00,WUHU216HW,2013-03-04 05:41:00,
2013-03-03 21:45:00,35.1,31.9,29.71,SSE,158,0.0,0.0,88,0.00,,,0.00,WUHU216HW,2013-03-04 05:45:00,
2013-03-03 21:46:00,35.1,31.9,29.71,SSE,158,0.0,0.0,88,0.00,,,0.00,WUHU216HW,2013-03-04 05:46:00,
2013-03-03 21:50:00,35.1,32.1,29.71,SSE,158,0.0,0.0,89,0.00,,,0.00,WUHU216HW,2013-03-04 05:50:00,
2013-03-03 21:51:00,35.1,32.1,29.71,SSE,158,0.0,0.0,89,0.00,,,0.00,WUHU216HW,2013-03-04 05:51:00,
2013-03-03 21:55:00,34.9,32.0,29.71,SSE,158,0.0,0.0,89,0.00,,,0.00,WUHU216HW,2013-03-04 05:55:00,
2013-03-03 21:56:00,34.9,32.0,29.71,SSE,158,0.0,0.0,89,0.00,,,0.00,WUHU216HW,2013-03-04 05:56:00,
2013-03-03 22:00:00,34.7,31.8,29.70,SSE,158,0.0,0.0,89,0.00,,,0.00,WUHU216HW,2013-03-04 06:00:00,
2013-03-03 22:01:00,34.7,31.8,29.70,SSE,158,0.0,0.0,89,0.00,,,0.00,WUHU216HW,2013-03-04 06:01:00,
2013-03-03 22:02:00,34.7,31.8,29.70,SSE,158,0.0,0.0,89,0.00,,,0.00,WUHU216HW,2013-03-04 06:02:00,
2013-03-03 22:05:00,34.7,31.8,29.70,SSE,158,0.0,0.0,89,0.00,,,0.00,WUHU216HW,2013-03-04 06:05:00,
2013-03-03 22:06:00,34.7,31.8,29.70,SSE,158,0.0,0.0,89,0.00,,,0.00,WUHU216HW,2013-03-04 06:06:00,
2013-03-03 22:07:00,34.7,31.8,29.71,SSE,158,0.0,0.0,89,0.00,,,0.00,WUHU216HW,2013-03-04 06:07:00,
2013-03-03 22:10:00,34.6,31.6,29.71,SSE,158,0.0,0.0,89,0.00,,,0.00,WUHU216HW,2013-03-04 06:10:00,
2013-03-03 22:11:00,34.6,31.6,29.71,SSE,158,0.0,0.0,89,0.00,,,0.00,WUHU216HW,2013-03-04 06:11:00,
2013-03-03 22:12:00,34.6,31.6,29.71,SSE,158,0.0,0.0,89,0.00,,,0.00,WUHU216HW,2013-03-04 06:12:00,
2013-03-03 22:16:00,34.4,31.4,29.71,SSE,158,0.0,0.0,89,0.00,,,0.00,WUHU216HW,2013-03-04 06:16:00,
2013-03-03 22:17:00,34.4,31.4,29.71,SSE,158,0.0,0.0,89,0.00,,,0.00,WUHU216HW,2013-03-04 06:17:00,
2013-03-03 22:21:00,34.4,31.4,29.71,SSE,158,0.0,0.0,89,0.00,,,0.00,WUHU216HW,2013-03-04 06:21:00,
2013-03-03 22:22:00,34.4,31.4,29.71,SSE,158,0.0,0.0,89,0.00,,,0.00,WUHU216HW,2013-03-04 06:22:00,
2013-03-03 22:26:00,34.4,31.4,29.71,SSE,158,0.0,0.0,89,0.00,,,0.00,WUHU216HW,2013-03-04 06:26:00,
2013-03-03 22:27:00,34.4,31.4,29.71,SSE,158,0.0,0.0,89,0.00,,,0.00,WUHU216HW,2013-03-04 06:27:00,
2013-03-03 22:32:00,34.2,31.2,29.71,SSE,158,0.0,0.0,89,0.00,,,0.00,WUHU216HW,2013-03-04 06:32:00,
2013-03-03 22:37:00,34.2,31.2,29.71,SSE,158,0.0,0.0,89,0.00,,,0.00,WUHU216HW,2013-03-04 06:37:00,
2013-03-03 22:38:00,34.2,31.2,29.71,SSE,158,0.0,0.0,89,0.00,,,0.00,WUHU216HW,2013-03-04 06:38:00,
2013-03-03 22:42:00,34.0,31.1,29.71,SSE,158,0.0,0.0,89,0.00,,,0.00,WUHU216HW,2013-03-04 06:42:00,
2013-03-03 22:43:00,34.0,31.1,29.71,SSE,158,0.0,0.0,89,0.00,,,0.00,WUHU216HW,2013-03-04 06:43:00,
2013-03-03 22:47:00,34.0,31.3,29.71,SSE,158,0.0,0.0,90,0.00,,,0.00,WUHU216HW,2013-03-04 06:47:00,
2013-03-03 22:48:00,34.0,31.3,29.71,SSE,158,0.0,0.0,90,0.00,,,0.00,WUHU216HW,2013-03-04 06:48:00,
2013-03-03 22:52:00,34.2,31.5,29.71,SSE,158,0.0,0.0,90,0.00,,,0.00,WUHU216HW,2013-03-04 06:52:00,
2013-03-03 22:53:00,34.2,31.5,29.71,SSE,158,0.0,0.0,90,0.00,,,0.00,WUHU216HW,2013-03-04 06:53:00,
2013-03-03 22:57:00,34.2,31.5,29.71,SSE,158,0.0,0.0,90,0.00,,,0.00,WUHU216HW,2013-03-04 06:57:00,
2013-03-03 22:58:00,34.2,31.5,29.71,SSE,158,0.0,0.0,90,0.00,,,0.00,WUHU216HW,2013-03-04 06:58:00,
2013-03-03 23:02:00,34.2,31.5,29.71,SSE,158,0.0,0.0,90,0.00,,,0.00,WUHU216HW,2013-03-04 07:02:00,
2013-03-03 23:03:00,34.2,31.5,29.71,SSE,158,0.0,0.0,90,0.00,,,0.00,WUHU216HW,2013-03-04 07:03:00,
2013-03-03 23:07:00,34.0,31.3,29.71,SSE,158,0.0,0.0,90,0.00,,,0.00,WUHU216HW,2013-03-04 07:07:00,
2013-03-03 23:08:00,34.0,31.3,29.71,SSE,158,0.0,0.0,90,0.00,,,0.00,WUHU216HW,2013-03-04 07:08:00,
2013-03-03 23:12:00,33.8,31.1,29.71,SSE,158,0.0,0.0,90,0.00,,,0.00,WUHU216HW,2013-03-04 07:12:00,
2013-03-03 23:13:00,33.7,31.0,29.71,SSE,158,0.0,0.0,90,0.00,,,0.00,WUHU216HW,2013-03-04 07:13:00,
2013-03-03 23:17:00,33.5,30.8,29.71,SSE,158,0.0,0.0,90,0.00,,,0.00,WUHU216HW,2013-03-04 07:17:00,
2013-03-03 23:18:00,33.5,30.8,29.71,SSE,158,0.0,0.0,90,0.00,,,0.00,WUHU216HW,2013-03-04 07:18:00,
2013-03-03 23:19:00,33.5,30.8,29.71,SSE,158,0.0,0.0,90,0.00,,,0.00,WUHU216HW,2013-03-04 07:19:00,
2013-03-03 23:22:00,33.3,30.7,29.71,SSE,158,0.0,0.0,90,0.00,,,0.00,WUHU216HW,2013-03-04 07:22:00,
2013-03-03 23:24:00,33.3,30.7,29.71,SSE,158,0.0,0.0,90,0.00,,,0.00,WUHU216HW,2013-03-04 07:24:00,
2013-03-03 23:27:00,33.1,30.5,29.71,SSE,158,0.0,0.0,90,0.00,,,0.00,WUHU216HW,2013-03-04 07:27:00,
2013-03-03 23:28:00,33.1,30.5,29.71,SSE,158,0.0,0.0,90,0.00,,,0.00,WUHU216HW,2013-03-04 07:28:00,
2013-03-03 23:29:00,33.1,30.5,29.71,SSE,158,0.0,0.0,90,0.00,,,0.00,WUHU216HW,2013-03-04 07:29:00,
2013-03-03 23:33:00,33.5,31.1,29.71,SSE,158,0.0,0.0,91,0.00,,,0.00,WUHU216HW,2013-03-04 07:33:00,
2013-03-03 23:34:00,33.5,31.1,29.71,SSE,158,0.0,0.0,91,0.00,,,0.00,WUHU216HW,2013-03-04 07:34:00,
2013-03-03 23:38:00,33.7,31.5,29.71,SSE,158,0.0,0.0,92,0.00,,,0.00,WUHU216HW,2013-03-04 07:38:00,
2013-03-03 23:39:00,33.8,31.7,29.71,SSE,158,0.0,0.0,92,0.00,,,0.00,WUHU216HW,2013-03-04 07:39:00,
2013-03-03 23:43:00,33.8,31.7,29.71,SSE,158,0.0,0.0,92,0.00,,,0.00,WUHU216HW,2013-03-04 07:43:00,
2013-03-03 23:44:00,33.8,31.7,29.71,SSE,158,0.0,0.0,92,0.00,,,0.00,WUHU216HW,2013-03-04 07:44:00,
2013-03-03 23:48:00,33.7,31.5,29.71,SSE,158,0.0,0.0,92,0.00,,,0.00,WUHU216HW,2013-03-04 07:48:00,
2013-03-03 23:49:00,33.7,31.2,29.71,SSE,158,0.0,0.0,91,0.00,,,0.00,WUHU216HW,2013-03-04 07:49:00,
2013-03-03 23:53:00,33.5,31.1,29.71,SSE,158,0.0,0.0,91,0.00,,,0.00,WUHU216HW,2013-03-04 07:53:00,
2013-03-03 23:54:00,33.5,31.1,29.71,SSE,158,0.0,0.0,91,0.00,,,0.00,WUHU216HW,2013-03-04 07:54:00,
2013-03-03 23:55:00,33.5,31.1,29.71,SSE,158,0.0,0.0,91,0.00,,,0.00,WUHU216HW,2013-03-04 07:55:00,
2013-03-03 23:58:00,33.3,31.0,29.71,SSE,158,0.0,0.0,91,0.00,,,0.00,WUHU216HW,2013-03-04 07:58:00,
2013-03-03 23:59:00,33.3,31.0,29.71,SSE,158,0.0,0.0,91,0.00,,,0.00,WUHU216HW,2013-03-04 07:59:00,